Wetbulb
53.99 54.20 53.64 52.90 51.46 50.22 49.65 47.94 40.59 50.29 51.70 42.93 42.67 38.23 38.91 39.73 41.28 43.38 42.80 43.11 41.12 42.36 43.52 43.54 44.27 44.67 46.75 48.81 50.43 48.94 52.81 51.36 48.98 49.54 53.05 53.70 52.86 51.13 51.29 46.70 46.88 48.29 48.44 49.24
53.88 53.93 53.41 52.43 51.12 50.72 49.61 44.04 44.36 50.79 49.24 36.68 37.19 39.47 38.83 40.44 39.89 40.17 40.20 40.18 42.74 43.42 42.52 40.56 43.54 45.00 47.01 47.75 49.36 49.54 52.15 49.06 46.48 48.48 51.19 52.87 50.69 51.87 52.37 51.58 51.56 49.04 45.71 48.68
53.59 53.32 52.98 52.33 51.48 50.68 49.72 44.55 39.41 45.21 46.20 45.34 39.12 37.03 36.92 36.99 41.23 39.73 40.74 38.30 41.46 41.76 41.20 43.76 41.91 43.36 45.25 46.79 47.21 48.25 49.19 50.31 49.08 46.64 49.25 51.52 49.34 50.81 51.70 51.01 48.41 48.88 49.76 51.02
53.25 53.40 52.92 52.45 51.55 50.30 49.46 45.98 40.47 41.32 37.00 38.98 38.94 37.84 38.25 35.91 34.69 40.06 41.10 36.72 35.78 35.91 37.53 40.40 40.02 42.62 44.21 45.97 47.33 48.07 48.62 47.00 47.76 50.50 48.39 48.31 50.68 50.20 51.08 50.39 51.33 49.08 51.18 51.72
52.83 53.32 53.17 52.71 51.64 49.78 48.12 41.67 39.90 41.68 40.06 39.41 36.53 36.96 35.88 35.51 35.97 36.71 36.56 35.37 36.77 36.84 34.62 36.17 35.57 39.92 42.40 42.12 45.93 45.63 47.06 45.20 46.25 45.47 47.41 46.94 46.51 49.33 50.28 51.15 51.89 51.90 52.31 52.47
52.94 53.22 53.33 52.92 51.97 49.21 46.88 47.93 47.32 42.82 38.48 37.83 36.16 35.41 36.03 35.67 37.67 39.33 39.70 38.58 38.16 36.05 37.56 40.50 42.91 44.28 44.52 44.23 42.62 42.98 43.29 43.89 43.25 43.07 47.38 46.32 43.89 48.05 49.57 50.60 52.33 52.16 49.98 54.16
52.98 53.30 53.40 53.17 52.83 50.32 49.94 47.48 45.82 39.76 34.37 36.27 35.64 37.04 37.57 36.48 37.31 35.67 40.06 40.95 38.10 41.65 45.62 44.63 45.10 44.74 43.99 43.49 43.60 45.20 42.46 42.64 43.48 42.37 44.86 37.10 48.95 53.38 52.62 50.88 52.28 53.63 53.73 55.02
52.95 53.35 53.51 53.51 52.94 52.46 49.12 49.06 44.84 40.25 34.68 36.82 37.78 37.36 37.67 39.18 38.85 37.35 39.08 41.25 43.88 46.17 42.85 39.18 37.65 38.44 39.07 40.72 42.54 42.98 44.69 43.04 40.70 39.10 40.28 45.22 47.20 48.53 49.07 49.58 50.70 54.43 54.22 55.59
52.82 53.18 53.08 53.35 53.15 52.48 50.56 48.56 49.12 43.93 37.00 36.15 39.58 37.64 38.24 36.13 35.98 37.73 38.55 43.42 46.42 44.74 40.70 37.40 31.78 33.25 35.32 35.77 38.57 43.78 43.61 44.10 40.65 40.82 36.99 37.20 47.20 51.16 52.85 53.06 47.71 56.16 57.40 57.67
52.43 52.66 53.00 53.17 53.33 52.71 51.06 47.69 49.18 43.72 37.71 40.30 40.92 37.55 37.22 40.20 38.50 36.96 38.45 40.83 41.04 43.70 37.70 33.98 33.00 33.08 37.90 33.64 34.70 38.23 38.23 39.26 36.86 37.82 37.61 42.60 49.15 52.91 56.01 45.51 52.16 59.29 59.65 60.14
52.48 52.75 52.97 52.87 53.19 53.33 51.75 48.33 48.79 44.30 39.02 40.76 43.71 43.09 39.41 39.04 38.59 34.60 38.92 38.47 40.17 40.36 35.64 35.39 36.13 34.95 38.89 36.46 39.20 38.05 38.40 36.61 36.74 38.00 36.58 35.03 49.03 48.60 46.22 53.05 55.69 58.20 58.64 59.08
53.04 52.65 52.80 52.96 53.27 53.37 53.31 47.89 48.47 48.52 42.39 41.47 47.46 47.32 47.35 45.27 42.86 40.11 40.00 38.29 38.26 41.31 38.41 39.27 36.66 36.00 37.82 37.30 33.64 42.80 36.43 40.60 39.29 40.46 40.52 48.03 50.72 50.19 53.22 53.65 53.36 54.83 57.40 58.75
52.88 52.32 52.79 53.14 53.48 53.41 53.05 49.34 47.13 45.52 41.65 41.12 42.91 44.54 48.79 50.41 49.31 48.64 37.63 39.44 41.05 40.71 43.36 38.59 38.46 33.91 39.32 34.81 36.97 39.08 42.30 45.52 41.49 41.87 44.55 46.10 48.61 50.62 51.88 52.46 52.92 56.05 57.26 57.69
52.38 52.30 52.80 53.17 53.54 53.50 53.13 49.30 47.60 46.74 42.12 36.29 42.30 48.51 46.14 49.74 48.86 47.57 46.57 43.98 44.07 43.14 43.06 39.35 37.44 36.07 42.40 38.26 40.56 40.00 43.11 44.74 42.49 42.73 45.72 47.31 48.34 49.55 50.91 52.08 52.79 53.15 55.00 57.93
52.07 52.39 52.84 53.11 53.19 53.05 53.51 51.20 48.60 49.08 43.20 37.98 40.78 46.90 48.94 48.96 48.25 46.00 45.78 43.81 41.58 39.51 38.18 36.56 35.24 38.36 37.60 39.10 40.05 38.99 43.15 41.89 39.89 39.49 46.32 46.58 47.88 50.63 51.99 50.82 50.55 55.31 56.24 58.21
51.92 52.42 52.76 52.72 52.39 52.69 50.57 45.77 48.27 51.16 47.83 40.37 37.11 46.65 45.32 46.96 45.10 43.50 43.53 43.48 42.38 41.69 38.56 36.78 38.30 41.43 37.34 34.39 34.01 40.42 43.22 44.79 46.10 44.26 48.10 48.81 50.03 51.05 52.31 52.38 53.92 55.55 56.83 60.12
52.27 52.76 52.82 52.81 51.77 53.07 49.00 45.80 48.78 50.06 49.39 40.60 36.86 40.36 46.98 47.09 45.28 42.60 42.59 43.39 41.54 39.53 35.91 34.89 36.63 37.37 38.17 34.04 30.99 37.70 40.96 43.03 44.03 45.62 45.93 44.84 48.04 48.34 51.45 52.77 54.44 56.19 57.42 60.18
52.60 52.47 52.54 51.77 50.82 49.96 48.81 50.14 49.42 50.33 44.57 42.41 36.32 39.21 43.46 47.42 42.83 42.30 43.01 38.84 38.61 37.07 34.87 35.71 34.69 36.59 35.46 31.67 36.83 39.93 42.24 43.57 42.66 43.05 44.87 44.80 47.96 49.93 52.08 53.53 55.19 57.11 58.12 58.42
52.12 52.72 52.26 52.81 50.13 47.29 48.98 50.72 49.73 50.17 44.13 36.97 36.81 35.40 36.24 45.61 43.26 45.72 42.36 40.96 35.05 39.34 34.92 34.81 38.18 34.22 32.41 34.19 39.45 45.86 50.57 49.00 46.21 47.37 44.73 44.76 45.38 48.08 49.05 50.21 56.18 56.32 55.95 58.07
52.13 52.24 51.62 47.88 48.33 52.02 50.44 46.54 42.39 41.78 41.11 39.40 34.41 38.06 35.67 40.19 41.76 41.32 41.87 42.55 37.53 36.01 38.65 43.07 35.57 34.93 41.13 42.89 45.91 46.81 49.13 49.23 47.44 45.11 44.21 46.10 47.84 47.92 50.72 54.32 55.83 55.51 57.03 59.08
54.17 53.32 50.52 50.28 52.53 47.84 46.59 41.17 38.35 38.63 35.86 37.57 37.31 38.28 37.24 43.85 38.94 39.63 42.03 38.52 37.97 35.13 41.02 40.07 36.34 34.92 40.69 43.59 45.51 47.72 48.03 48.69 49.00 50.90 51.41 52.94 53.01 52.52 53.24 55.07 55.85 56.64 55.91 55.88
52.20 51.64 51.02 52.07 48.69 49.23 44.70 41.29 42.50 40.37 40.73 46.82 40.74 42.65 41.28 42.36 44.49 42.81 45.06 41.74 43.20 37.92 45.99 39.02 32.77 39.21 43.98 44.15 44.19 46.40 48.53 48.01 48.06 48.74 48.19 48.80 49.97 53.59 54.58 55.49 54.05 54.38 54.64 54.83
52.11 49.60 49.77 48.28 46.85 38.09 37.82 35.81 38.71 40.42 47.48 48.06 47.64 46.86 48.13 47.55 47.79 45.89 46.00 42.64 40.79 46.81 39.81 33.14 37.30 44.32 45.80 45.57 45.00 45.31 47.50 48.35 48.11 47.99 48.47 48.37 48.36 47.95 49.19 50.47 52.32 54.26 53.56 54.39
51.47 46.55 37.73 44.07 42.29 43.26 42.47 42.29 43.09 46.60 47.52 48.97 49.92 49.16 48.76 50.84 46.24 44.06 40.52 42.28 42.92 37.51 32.77 33.44 41.88 44.69 45.69 45.63 46.98 46.85 46.59 46.68 46.76 46.74 46.86 46.74 47.06 47.08 47.50 48.24 49.22 49.86 50.75 52.15
49.07 48.26 40.02 43.66 46.08 47.90 47.74 48.98 48.88 49.91 50.90 51.06 51.25 51.35 49.62 47.26 44.69 44.67 41.12 39.33 35.84 35.90 35.22 39.53 43.28 44.95 45.47 45.05 46.22 46.66 47.41 47.33 47.60 47.90 47.97 48.34 47.24 46.45 46.72 47.93 49.67 50.38 48.35 49.51
50.22 48.32 45.49 47.27 46.31 46.21 47.33 47.49 47.41 50.39 50.98 53.61 52.35 47.02 44.24 42.68 42.74 37.87 35.12 35.19 32.41 36.05 40.71 43.34 43.20 43.49 46.17 46.07 47.08 47.47 47.72 47.83 48.04 49.01 49.27 48.95 48.49 47.95 47.98 48.60 48.75 49.00 49.75 48.92
48.22 47.31 49.58 48.56 47.95 46.92 47.56 48.34 47.80 51.34 49.06 46.21 47.07 39.64 38.36 44.97 39.37 36.91 41.82 37.67 40.19 44.06 43.67 44.26 45.58 45.13 45.76 47.02 46.43 46.92 47.46 47.25 47.97 48.05 49.00 49.30 50.12 50.16 49.40 47.70 49.26 48.72 48.90 49.68
MSLP
1023.68 1023.07 1022.42 1021.80 1021.18 1020.30 1018.55 1017.00 1014.57 1015.04 1014.41 1012.60 1012.63 1012.37 1012.98 1012.69 1011.44 1011.02 1010.07 1009.04 1007.66 1005.83 1004.37 1002.57 1001.00 1000.44 1000.75 1001.04 999.53 998.00 996.95 995.01 992.92 992.20 992.83 993.06 993.14 993.23 993.48 993.00 993.15 993.01 991.80 990.52
1023.68 1022.99 1022.45 1021.95 1021.36 1020.90 1019.35 1017.25 1016.08 1015.36 1014.66 1013.43 1013.64 1014.02 1013.31 1012.80 1012.19 1012.00 1011.53 1010.52 1009.10 1008.12 1006.03 1004.37 1003.13 1002.49 1002.94 1002.22 1000.62 999.41 998.12 995.99 993.91 992.85 992.92 992.81 991.99 992.46 992.87 993.32 992.65 991.95 991.99 991.17
1023.52 1022.90 1022.47 1022.13 1021.58 1021.08 1020.19 1018.01 1015.92 1014.97 1015.16 1015.43 1014.66 1014.27 1013.66 1013.06 1012.56 1012.54 1012.42 1013.08 1011.84 1009.59 1007.22 1005.76 1004.54 1003.61 1003.49 1003.10 1002.28 1001.70 1000.24 996.77 994.40 992.22 992.14 992.48 992.49 992.01 992.48 992.72 991.91 991.48 991.38 991.27
1023.37 1022.87 1022.47 1022.09 1021.66 1021.26 1020.42 1018.47 1017.24 1017.76 1016.14 1015.70 1015.83 1015.41 1014.14 1013.38 1013.19 1013.23 1012.63 1013.55 1013.59 1012.53 1009.53 1006.94 1006.04 1005.32 1004.44 1003.41 1003.14 1001.69 1000.20 997.67 997.04 995.23 994.90 994.28 992.44 992.17 992.11 991.75 991.91 991.16 991.41 991.34
1023.06 1022.67 1022.28 1021.77 1021.58 1021.20 1020.02 1019.06 1018.67 1018.56 1017.69 1017.46 1016.75 1015.54 1014.54 1013.80 1013.84 1013.84 1012.94 1013.48 1013.10 1012.47 1011.96 1011.13 1008.86 1007.33 1005.67 1004.27 1003.89 1002.78 1001.59 999.28 998.62 997.08 996.40 995.69 994.51 993.62 992.68 992.15 991.84 991.93 991.86 991.46
1022.71 1022.26 1021.84 1021.67 1021.45 1021.38 1020.27 1019.67 1019.49 1019.44 1018.21 1017.30 1016.71 1015.79 1015.19 1014.82 1014.44 1013.60 1013.46 1013.15 1012.49 1011.66 1011.60 1011.41 1009.99 1008.61 1007.40 1006.36 1005.50 1004.11 1002.92 1000.83 999.77 997.41 996.68 996.15 994.69 993.73 993.53 993.30 992.81 992.66 991.93 992.76
1022.34 1021.80 1021.38 1021.18 1020.99 1021.08 1021.00 1020.63 1020.42 1019.70 1018.41 1017.59 1016.75 1016.13 1015.48 1014.93 1014.35 1013.95 1013.22 1012.84 1012.19 1011.56 1011.51 1010.59 1008.95 1007.52 1006.57 1006.02 1005.46 1004.97 1003.70 1002.47 1000.83 998.37 997.47 995.90 993.25 993.21 993.35 993.47 993.28 993.35 993.36 993.36
1021.90 1021.21 1020.75 1020.49 1020.34 1020.28 1020.40 1020.24 1020.41 1019.88 1018.68 1017.74 1016.58 1015.84 1015.29 1014.85 1014.37 1013.71 1012.95 1012.50 1011.96 1011.80 1011.30 1009.63 1007.53 1005.93 1005.53 1004.71 1004.55 1004.44 1004.35 1003.30 1001.30 999.75 997.79 995.29 994.04 994.33 994.24 993.87 993.30 993.52 993.44 993.51
1021.27 1020.46 1020.05 1019.78 1019.46 1019.33 1019.37 1019.43 1019.70 1019.62 1018.87 1017.14 1016.52 1016.02 1015.41 1014.70 1014.07 1013.26 1012.50 1012.20 1011.90 1011.62 1010.81 1009.41 1007.85 1005.18 1004.46 1003.87 1003.51 1003.85 1003.84 1004.06 1002.74 1000.27 998.59 996.00 994.79 994.13 995.10 995.04 994.43 994.01 994.60 994.49
1020.45 1019.71 1019.34 1018.99 1018.56 1018.29 1018.23 1018.26 1018.68 1019.13 1018.30 1016.70 1016.42 1015.67 1015.50 1014.93 1014.56 1013.71 1012.84 1012.31 1011.50 1011.35 1010.50 1009.53 1008.21 1006.70 1005.89 1004.64 1003.46 1003.25 1003.29 1003.34 1002.37 1001.09 999.17 996.93 995.77 996.07 996.44 995.87 995.37 995.02 995.43 995.48
1019.62 1019.05 1018.65 1018.15 1017.70 1017.29 1017.09 1016.90 1017.23 1018.16 1017.67 1016.23 1015.41 1015.03 1015.10 1015.03 1014.80 1014.24 1013.43 1013.11 1011.99 1011.17 1010.63 1009.86 1008.49 1007.48 1006.04 1005.67 1004.07 1002.99 1002.60 1002.58 1001.64 1001.39 999.59 997.77 997.46 996.91 996.87 996.23 996.38 996.28 996.48 996.35
1018.82 1018.39 1017.82 1017.33 1016.77 1016.27 1016.01 1015.98 1016.59 1016.92 1017.15 1015.80 1014.81 1014.51 1014.19 1014.15 1014.40 1014.48 1014.28 1013.26 1012.75 1011.87 1011.70 1011.23 1010.73 1009.16 1008.08 1006.55 1004.61 1003.89 1003.56 1002.55 1001.10 1000.59 999.25 998.78 998.52 998.13 997.97 998.19 997.81 997.67 996.96 996.66
1018.12 1017.60 1016.96 1016.39 1015.82 1015.37 1015.31 1015.38 1016.10 1016.88 1016.61 1015.47 1014.09 1012.24 1011.81 1012.26 1012.65 1013.18 1013.80 1013.71 1013.64 1012.78 1012.29 1012.20 1011.51 1010.55 1008.36 1006.57 1005.03 1004.30 1003.74 1003.14 1002.15 1001.72 1000.54 1000.00 999.63 999.40 999.07 998.99 998.60 997.93 997.50 996.68
1017.43 1016.73 1016.12 1015.47 1014.92 1014.78 1014.59 1014.94 1015.58 1015.93 1016.19 1015.22 1012.16 1011.76 1011.64 1011.83 1012.17 1012.42 1012.91 1013.30 1013.28 1013.39 1013.47 1013.31 1012.60 1011.28 1009.29 1008.05 1006.50 1005.10 1003.85 1002.95 1002.25 1001.15 1000.68 1000.62 1000.06 999.87 999.65 999.49 999.36 998.47 997.85 997.12
1016.66 1015.97 1015.23 1014.59 1014.22 1014.23 1014.30 1014.77 1015.34 1015.26 1015.70 1014.84 1012.78 1011.75 1010.87 1011.06 1011.40 1011.99 1012.44 1012.85 1013.21 1013.60 1013.95 1013.80 1012.93 1012.18 1011.39 1009.43 1007.98 1005.10 1004.54 1003.32 1002.20 1000.53 1000.80 1000.37 999.99 999.88 999.76 999.10 998.36 998.41 997.73 997.31
1016.01 1015.20 1014.40 1013.91 1013.74 1014.06 1014.29 1014.58 1015.11 1015.13 1015.55 1015.04 1013.29 1011.19 1010.99 1011.15 1011.71 1011.88 1011.95 1012.28 1012.94 1013.49 1013.46 1013.12 1012.44 1011.65 1011.56 1009.71 1006.86 1003.78 1004.16 1003.50 1002.20 1001.08 1001.12 1000.44 999.99 999.94 999.82 999.65 999.30 998.61 997.63 997.16
1015.38 1014.49 1013.87 1013.59 1013.85 1013.95 1014.08 1014.85 1014.77 1015.21 1015.52 1015.13 1013.82 1011.47 1010.58 1010.99 1011.47 1012.05 1012.12 1012.57 1013.06 1013.66 1013.67 1013.12 1012.51 1012.12 1011.76 1009.59 1006.70 1002.04 1002.49 1002.05 1001.74 1001.66 1001.55 1000.53 1000.23 999.54 999.79 999.51 998.79 997.93 997.27 997.03
1014.76 1014.18 1014.10 1014.17 1014.33 1014.67 1014.76 1015.25 1015.31 1015.37 1015.41 1015.28 1014.25 1012.07 1010.53 1011.14 1011.07 1011.15 1012.01 1012.64 1013.21 1013.48 1013.51 1012.87 1011.89 1011.24 1010.59 1008.41 1004.86 1002.71 1001.08 999.67 999.24 999.19 999.69 1000.56 1000.38 999.74 999.19 999.07 998.76 997.41 996.83 997.04
1014.25 1014.23 1014.27 1014.04 1014.42 1014.68 1015.15 1015.41 1015.60 1015.60 1015.93 1015.37 1014.76 1013.64 1012.34 1011.19 1011.13 1011.01 1011.51 1011.91 1012.38 1012.48 1012.49 1011.77 1011.19 1010.35 1009.70 1006.95 1003.30 999.87 998.53 997.71 996.96 996.67 998.26 1000.05 1000.07 999.77 999.46 999.27 998.06 997.37 997.23 996.93
1014.05 1014.24 1013.29 1013.74 1015.18 1015.29 1015.47 1015.67 1015.54 1015.51 1015.75 1015.66 1015.09 1014.47 1013.36 1012.70 1011.48 1010.92 1011.00 1011.23 1011.48 1011.34 1010.91 1010.39 1010.39 1009.45 1007.79 1004.99 1002.54 1001.00 999.59 998.78 998.02 998.01 998.77 999.11 999.09 999.04 998.84 998.13 998.13 998.13 996.68 996.42
1013.39 1012.96 1013.39 1015.11 1015.31 1015.55 1014.96 1014.87 1015.00 1015.03 1014.76 1014.80 1014.42 1014.06 1013.34 1012.59 1012.11 1011.31 1011.04 1010.91 1010.95 1010.49 1010.14 1009.75 1009.93 1008.78 1007.72 1006.44 1004.24 1002.27 1001.02 999.68 998.94 998.39 998.27 998.01 998.38 998.49 998.55 998.08 998.35 997.67 997.57 997.29
1013.81 1013.78 1014.56 1014.54 1014.79 1014.01 1013.97 1014.39 1014.34 1014.17 1013.39 1012.76 1013.14 1012.70 1012.72 1012.26 1011.91 1011.19 1010.33 1010.06 1009.96 1010.03 1010.01 1009.95 1010.28 1010.39 1009.25 1007.71 1006.13 1003.85 1002.41 1001.38 1000.43 1000.00 999.61 999.14 998.93 998.87 998.85 998.47 998.39 998.68 998.76 998.77
1013.85 1013.84 1013.09 1013.48 1014.36 1014.47 1014.70 1014.56 1014.16 1013.45 1012.10 1011.79 1011.39 1011.19 1011.31 1011.41 1011.17 1010.59 1010.11 1009.80 1010.17 1010.47 1010.83 1011.86 1012.38 1011.31 1010.00 1009.06 1007.69 1006.48 1004.98 1003.38 1002.04 1001.62 1000.68 999.84 999.92 1000.23 1000.52 1000.77 1000.84 1000.38 1000.64 1000.47
1012.51 1013.13 1013.91 1013.67 1014.28 1014.59 1014.50 1014.01 1013.24 1012.53 1011.49 1010.54 1010.29 1009.62 1009.71 1009.86 1010.14 1010.92 1010.77 1011.44 1011.38 1011.64 1012.51 1013.37 1012.89 1012.04 1011.00 1009.92 1008.74 1007.78 1007.10 1006.14 1005.15 1004.52 1003.95 1003.83 1003.64 1003.36 1002.97 1002.35 1002.32 1002.21 1002.33 1003.16
1012.69 1013.35 1014.35 1014.40 1014.53 1013.59 1013.28 1012.56 1011.49 1010.94 1010.52 1009.74 1008.90 1008.68 1008.57 1009.16 1009.94 1011.37 1012.31 1011.92 1013.15 1013.81 1014.36 1014.56 1013.71 1013.14 1012.14 1010.89 1009.77 1008.86 1008.07 1007.62 1006.88 1006.42 1006.21 1005.89 1005.81 1005.36 1005.06 1004.81 1004.83 1004.24 1003.71 1003.51
1013.36 1014.55 1014.54 1014.60 1013.63 1013.09 1012.39 1011.90 1011.04 1010.58 1009.49 1008.97 1008.95 1009.31 1009.54 1010.23 1011.74 1013.22 1014.15 1014.27 1014.76 1015.31 1015.21 1014.95 1014.60 1013.91 1012.81 1011.89 1010.87 1009.94 1009.32 1008.69 1008.08 1007.53 1007.04 1006.82 1006.67 1006.62 1006.83 1006.46 1006.23 1005.73 1005.65 1005.79
1014.26 1014.65 1014.80 1014.48 1014.17 1013.44 1012.76 1012.05 1011.48 1010.74 1009.89 1009.33 1009.71 1010.98 1011.93 1011.81 1012.85 1013.97 1014.74 1015.03 1015.14 1015.04 1014.93 1014.59 1014.59 1014.28 1013.55 1012.64 1011.92 1011.28 1010.57 1009.91 1009.31 1008.95 1008.39 1007.82 1007.42 1007.11 1006.69 1006.64 1006.92 1007.11 1007.48 1007.56
Wind_Speed
18 18 17 18 17 19 9 7 6 10 12 4 4 7 11 11 15 15 16 12 16 16 12 11 4 4 10 9 7 15 16 10 13 25 23 25 28 23 28 14 23 19 14 7
18 17 16 16 16 14 9 8 5 4 11 6 7 9 9 10 11 13 11 11 11 16 15 6 4 2 5 11 10 3 4 14 15 15 21 22 30 29 24 25 16 21 18 5
17 16 16 14 14 12 8 6 6 3 3 0 9 10 9 10 9 8 16 7 18 17 16 11 6 3 4 9 10 8 7 12 22 19 16 18 26 29 27 27 21 17 18 15
17 16 15 14 12 11 8 2 5 5 8 10 14 12 9 10 9 10 11 5 10 8 9 11 13 7 11 2 8 7 7 14 6 16 4 7 14 27 29 30 26 25 18 21
16 15 14 13 9 10 5 6 5 2 10 9 12 10 8 9 9 11 10 6 15 14 5 11 9 10 7 5 9 9 7 4 5 14 10 8 11 13 15 22 30 27 26 23
18 16 15 13 7 4 4 1 4 3 6 8 10 6 10 14 15 8 6 9 17 11 10 11 14 15 15 15 12 9 7 6 7 15 11 10 16 21 21 19 19 17 23 15
19 18 17 14 11 8 3 3 4 4 6 8 9 16 16 15 12 12 15 13 13 9 12 17 18 17 15 13 13 10 8 8 8 7 7 17 11 7 22 23 20 20 18 15
21 20 19 17 15 10 4 3 3 3 4 7 15 11 13 13 12 11 12 11 9 9 13 11 10 9 9 14 15 14 12 9 8 11 13 10 5 4 8 11 17 17 18 12
22 22 22 19 17 15 5 4 4 4 3 5 8 12 13 11 10 13 4 5 7 6 6 6 8 5 5 3 6 14 14 12 10 8 16 18 3 20 2 2 10 9 4 7
24 25 24 22 20 17 5 4 9 3 4 8 10 7 7 5 6 7 7 2 4 5 5 6 6 8 2 7 9 10 13 12 15 14 14 9 10 10 2 12 7 7 0 4
25 26 25 23 22 20 8 4 11 6 4 9 16 16 11 8 8 9 5 7 4 5 6 4 4 7 2 7 12 6 10 11 12 16 19 24 10 11 14 9 11 9 11 12
25 25 24 23 21 20 12 4 7 9 4 6 12 15 17 18 17 9 4 8 9 2 4 2 4 5 4 9 11 8 15 13 12 12 11 9 9 10 13 15 16 17 19 17
24 26 24 22 21 19 11 1 4 3 2 7 10 7 6 13 17 15 9 5 8 11 8 4 3 8 10 10 11 16 18 17 15 18 19 24 22 19 21 18 20 20 21 22
24 24 23 22 20 15 7 3 5 2 2 4 2 1 6 6 9 13 14 15 2 5 4 3 4 7 9 9 14 15 13 13 17 21 22 23 23 20 21 24 22 25 24 24
23 23 23 21 17 7 1 4 4 2 3 3 7 16 2 4 7 12 14 15 15 8 3 5 4 4 7 11 15 20 17 24 19 19 20 19 18 17 20 24 25 21 20 22
21 22 21 18 7 8 3 3 1 5 2 2 4 5 3 1 4 9 13 12 9 6 4 4 5 7 3 5 9 21 19 23 25 22 25 26 24 21 20 19 20 24 22 21
19 19 15 4 11 1 2 4 2 5 2 2 4 4 2 3 3 3 4 4 2 1 1 4 3 2 7 5 16 30 22 22 23 25 23 26 25 21 21 21 24 25 22 18
16 7 10 13 12 8 2 3 7 4 1 1 3 5 3 2 3 3 4 3 2 3 2 3 3 2 3 7 19 25 28 28 23 26 27 24 23 19 17 18 22 23 16 12
9 10 9 4 2 2 3 9 6 2 2 2 2 3 4 7 3 2 4 3 3 4 3 3 3 3 3 21 25 18 13 11 8 5 21 19 21 20 20 21 25 15 14 14
10 7 5 4 3 14 10 1 1 2 2 1 2 2 4 3 3 3 4 3 3 3 2 2 3 6 15 29 27 21 19 11 5 12 15 18 20 16 18 20 3 4 9 9
4 1 4 4 9 1 2 2 3 2 2 2 2 3 4 0 3 3 1 1 2 4 6 8 6 11 24 27 31 25 22 21 23 18 13 9 10 7 2 10 8 11 10 14
4 5 3 4 5 1 5 5 3 2 4 1 3 2 3 3 2 3 2 3 1 7 7 6 7 13 21 23 26 31 23 25 24 22 15 23 22 6 6 11 15 16 15 18
4 2 2 4 5 8 7 8 4 8 7 5 9 5 2 3 3 3 4 9 6 3 6 5 8 16 19 18 17 21 28 30 29 28 28 31 30 27 23 20 19 22 21 17
4 5 8 6 6 8 4 9 8 7 9 11 8 7 2 3 3 3 6 4 5 6 5 6 10 19 19 18 16 15 19 20 23 24 25 24 22 21 21 20 19 18 19 14
5 5 7 6 5 4 7 8 7 8 8 8 5 3 6 7 5 7 6 6 6 6 5 7 12 18 17 16 17 18 18 17 17 16 16 18 17 17 18 17 15 17 18 18
5 7 5 7 7 10 10 10 10 10 7 4 3 5 6 8 5 8 8 6 5 5 6 7 10 14 15 14 15 15 16 17 16 16 17 18 19 18 14 16 15 17 18 17
5 5 6 6 6 10 10 10 10 10 9 5 4 7 4 4 5 5 3 7 8 7 6 6 9 11 12 12 14 16 17 17 18 18 19 19 17 17 17 18 15 17 16 15
Wind_Direction
344 347 350 349 345 337 324 312 321 17 322 312 346 4 334 322 318 336 305 288 283 294 308 290 277 118 24 349 282 218 222 239 220 204 198 214 202 204 202 217 212 241 282 248
346 347 347 344 344 349 323 336 311 20 325 2 11 338 311 321 338 349 339 306 342 297 288 277 320 17 43 3 13 338 157 223 210 199 202 203 217 204 211 217 236 210 220 190
340 344 345 341 341 347 309 317 320 3 306 148 333 346 340 331 347 325 336 8 316 311 254 249 289 336 29 348 11 320 253 247 226 220 211 196 215 207 214 211 223 227 207 235
335 336 340 343 339 339 294 0 26 6 326 336 331 317 303 316 348 339 311 128 5 336 286 268 256 342 309 273 7 338 322 224 235 252 315 290 236 214 210 216 224 228 227 212
325 328 326 328 346 320 280 317 337 250 299 289 310 295 304 321 336 329 321 3 325 325 315 312 324 337 334 329 335 327 334 210 245 244 222 235 238 238 244 234 228 233 242 248
317 316 311 314 327 295 311 347 296 276 285 293 308 296 322 312 313 302 266 311 318 319 338 299 296 298 285 281 292 308 290 298 241 227 204 254 242 225 221 225 234 238 237 244
311 308 303 300 295 204 284 289 280 253 275 287 287 294 297 297 303 294 301 304 297 329 325 296 271 255 253 259 255 240 275 244 261 262 167 235 248 212 216 225 231 226 246 257
307 303 301 297 289 261 218 209 238 239 254 280 286 291 299 296 293 275 291 299 313 313 288 274 270 216 218 227 232 222 219 259 248 239 226 280 181 168 217 219 229 230 242 253
305 300 301 300 293 281 235 200 191 239 271 223 286 303 295 292 293 286 248 296 295 281 281 260 262 266 11 198 190 207 207 221 247 223 240 233 280 212 188 258 247 245 205 238
302 301 304 304 300 293 255 203 179 201 245 256 255 262 285 299 268 270 272 250 276 218 232 248 227 249 321 256 235 175 196 210 224 228 249 247 270 88 42 200 69 62 313 349
300 303 307 308 305 299 286 199 178 185 226 261 256 259 241 251 256 263 16 291 178 276 233 256 249 259 227 281 268 272 208 203 214 233 242 238 258 289 237 350 322 312 323 318
301 307 310 310 304 302 297 228 187 189 218 261 305 281 270 249 248 259 255 272 318 32 290 269 326 256 245 262 258 216 244 260 266 227 237 272 299 284 314 317 306 301 306 305
307 313 312 309 304 304 298 139 127 128 310 282 251 247 227 222 229 227 231 223 238 261 284 296 249 254 294 270 252 256 255 276 273 269 258 268 276 287 283 290 295 304 302 296
312 314 313 310 308 315 306 150 163 129 117 269 307 142 244 264 241 230 223 236 258 279 297 271 266 260 264 266 275 267 269 271 257 264 255 261 262 263 281 275 275 283 288 290
318 315 314 312 314 330 112 95 183 203 174 287 311 300 164 321 203 219 214 220 232 235 222 221 229 246 277 269 278 263 257 258 250 256 261 267 266 266 263 264 269 283 278 287
320 316 314 315 312 143 142 138 164 206 175 304 290 13 272 203 199 218 218 218 223 217 211 220 237 243 265 258 253 251 260 264 264 265 263 266 265 266 270 274 278 274 274 280
319 316 322 15 125 156 19 32 83 136 136 264 283 284 155 326 165 201 218 203 197 220 282 248 277 237 211 247 256 273 265 244 241 249 256 260 260 255 255 260 262 255 257 266
325 333 96 108 103 121 101 63 117 131 111 231 306 293 273 60 276 221 142 155 151 212 239 258 245 234 231 260 254 274 280 270 252 235 226 235 254 249 256 259 277 264 257 258
333 150 152 170 56 38 58 128 131 60 25 356 317 312 319 343 275 297 163 160 195 174 233 254 263 288 264 285 295 305 294 336 341 248 199 214 237 253 257 263 263 260 257 246
142 190 225 90 52 120 129 178 348 23 25 92 259 308 277 324 326 284 342 65 22 327 258 258 340 332 325 352 2 17 18 28 86 125 167 198 219 227 246 253 304 307 293 193
212 170 61 67 113 261 227 12 12 340 322 179 242 254 292 151 309 317 74 355 342 359 10 355 350 2 356 351 359 5 13 22 39 39 43 207 206 201 261 121 157 76 49 58
37 56 97 149 217 300 352 11 332 317 328 334 282 307 227 290 255 293 343 328 17 45 339 5 14 348 353 356 357 358 19 29 33 39 51 61 52 79 74 63 68 62 63 69
135 207 94 35 14 32 13 350 340 324 329 337 329 322 249 204 242 276 355 5 33 358 25 29 354 345 348 351 351 1 11 19 23 42 40 42 39 38 39 47 48 54 50 54
43 29 21 30 13 12 316 308 302 283 286 303 338 342 1 21 28 359 354 39 1 21 34 29 346 349 346 348 355 8 19 17 21 31 39 43 41 36 31 31 33 41 44 39
50 41 33 11 317 326 347 330 314 332 313 297 314 276 9 33 43 28 6 13 32 22 27 353 332 339 345 355 3 17 22 27 31 28 40 52 52 48 44 38 39 42 41 38
59 42 5 354 2 7 7 354 350 349 310 264 349 20 19 42 45 25 13 1 16 346 339 340 327 337 346 4 11 17 23 27 26 28 39 44 47 54 60 58 47 47 49 47
43 34 37 18 18 1 5 1 357 337 8 22 51 50 17 5 47 34 36 354 329 331 326 357 348 350 352 10 23 23 24 24 26 30 30 28 37 37 38 43 48 56 51 53